• Processing (Info)

  • MPEC 2010-F64 : 2010 FZ9

    The following Minor Planet Electronic Circular may be linked-to from your own Web pages, but must not otherwise be redistributed electronically.

    A form allowing access to any MPEC is at the bottom of this page.


    Read MPEC 2010-F63 Read MPEC 2010-F65


    M.P.E.C. 2010-F64                                Issued 2010 Mar. 22, 11:01 UT
    
         The Minor Planet Electronic Circulars contain information on unusual
             minor planets and routine data on comets.  They are published
       on behalf of Commission 20 of the International Astronomical Union by the
              Minor Planet Center, Smithsonian Astrophysical Observatory,
                              Cambridge, MA 02138, U.S.A.
    
                 Prepared using the Tamkin Foundation Computer Network
    
                                  MPC@CFA.HARVARD.EDU
           URL https://www.minorplanetcenter.org/iau/mpc.html  ISSN 1523-6714
    
                                       2010 FZ9
    
    Observations:
         K10F09Z* C2010 03 17.39220 15 39 00.82 -11 03 53.5          18.7   EF064704
         K10F09Z  C2010 03 17.40399 15 39 02.77 -11 03 34.6          18.9   EF064704
         K10F09Z  C2010 03 17.41524 15 39 04.67 -11 03 15.0          19.5   EF064704
         K10F09Z  C2010 03 17.42644 15 39 06.51 -11 02 54.5          19.5   EF064704
         K10F09Z  C2010 03 17.43789 15 39 08.51 -11 02 36.4          19.5   EF064704
         K10F09Z  C2010 03 22.05362 15 52 02.16 -08 44 19.2          19   R EF064461
         K10F09Z  C2010 03 22.05594 15 52 02.49 -08 44 14.9                 EF064461
         K10F09Z  C2010 03 22.05825 15 52 02.84 -08 44 10.5                 EF064461
         K10F09Z KC2010 03 22.38055 15 52 54.78 -08 34 02.8          19.2 R EF064H36
         K10F09Z KC2010 03 22.38370 15 52 55.21 -08 33 56.8          19.4 R EF064H36
         K10F09Z KC2010 03 22.38667 15 52 55.63 -08 33 51.2          19.3 R EF064H36
         K10F09Z KC2010 03 22.38966 15 52 56.09 -08 33 45.8          19.3 R EF064H36
    
    Observer details:
    461 University of Szeged, Piszkesteto Stn. (Konkoly).  Observer K. Sarneczky.
        0.60-m Schmidt + CCD.
    704 Lincoln Laboratory ETS, New Mexico.  Observers M. Blythe, G. Spitz,
        R. Brungard, J. Paige, P. Festler.  1.0-m f/2.15 reflector + CCD.
    H36 Sandlot Observatory, Scranton.  Observer G. Hug.  0.56-m reflector + CCD.
    
    Orbital elements:
    2010 FZ9                                                 Earth MOID = 0.3026 AU
    Epoch 2010 Jan. 4.0 TT = JDT 2455200.5                  MPC
    M 338.43449              (2000.0)            P               Q
    n   0.28647764     Peri.   13.64228     -0.95759479     +0.28775453
    a   2.2789890      Node   183.19261     -0.28267560     -0.94803794
    e   0.4309743      Incl.   15.06503     -0.05573790     -0.13572542
    P   3.44           H   18.8           G   0.15           U   9
    Residuals in seconds of arc
    100317 704  0.1+  0.5+    100317 704  0.8+  0.5-    100322 H36  0.9+  0.0
    100317 704  0.3-  0.7-    100322 461  0.4+  0.0     100322 H36  0.1+  0.1+
    100317 704  0.0   0.3-    100322 461  0.1-  0.1-    100322 H36  0.5-  0.1+
    100317 704  0.5-  1.0+    100322 461  0.3-  0.0     100322 H36  0.5-  0.1-
    
    Ephemeris:
    2010 FZ9                 a,e,i = 2.28, 0.43, 15                  q = 1.2968
    Date    TT    R. A. (2000) Decl.     Delta      r     Elong.  Phase     V
    2010 03 15    15 31.96   -12 10.2    0.472    1.298   120.3    41.4    19.4
    2010 03 25    15 59.74   -07 10.0    0.444    1.298   123.8    39.7    19.2
    2010 04 04    16 22.42   -01 28.9    0.429    1.305   127.2    37.6    19.1
    2010 04 14    16 39.03   +04 17.7    0.425    1.320   130.5    35.3    19.0
    2010 04 24    16 49.21   +09 32.8    0.433    1.341   133.6    32.9    19.0
    2010 05 04    16 53.48   +13 46.2    0.450    1.369   136.3    30.6    19.1
    2010 05 14    16 52.93   +16 38.9    0.476    1.402   138.4    28.6    19.2
    2010 05 24    16 49.32   +18 02.7    0.512    1.441   139.6    27.1    19.4
    2010 06 03    16 44.70   +18 02.3    0.557    1.483   139.7    26.2    19.6
    2010 06 13    16 40.77   +16 50.9    0.612    1.529   138.6    26.1    19.8
    2010 06 23    16 38.83   +14 46.3    0.678    1.577   136.3    26.4    20.1
    2010 07 03    16 39.53   +12 08.2    0.755    1.628   133.0    27.2    20.5
    2010 07 13    16 42.94   +09 13.0    0.844    1.680   128.9    28.1    20.8
    2010 07 23    16 48.97   +06 13.5    0.944    1.733   124.4    28.9    21.1
    2010 08 02    16 57.31   +03 19.4    1.055    1.787   119.4    29.6    21.5
    2010 08 12    17 07.62   +00 36.3    1.176    1.842   114.3    30.1    21.8
    
    Timothy B. Spahr             (C) Copyright 2010 MPC           M.P.E.C. 2010-F64
    

    Read MPEC 2010-F63 Read MPEC 2010-F65


    MPEC number:

    Enter an MPEC number in one of the following forms:

    • 1997-B01 (the full form)
    • J97B01 (the packed version of the full form)
    • B01 (the abbreviated form)